514  
ASUS42 KTBW 231417  
RWRFL  
FLORIDA REGIONAL WEATHER ROUNDUP  
NATIONAL WEATHER SERVICE TAMPA BAY RUSKIN FL  
1000 AM EDT SAT SEP 23 2017  
 
NOTE: "FAIR" INDICATES FEW OR NO CLOUDS BELOW 12,000 FEET WITH NO  
SIGNIFICANT WEATHER AND/OR S TO VISIBILITY
.  
 
FLZ001>010-012>015-112-114-115-231500-  
PANHANDLE FLORIDA  
 
CITY SKY/WX TMP DP RH WIND PRES REMARKS
 
PENSACOLA SUNNY 81 72 74 NE6 29.97S  
PENSACOLA NAS MOSUNNY 81 73 76 NE9 29.96S  
MILTON NAS SUNNY 78 72 81 E5 29.99  
CRESTVIEW SUNNY 78 70 76 E7 30.00S  
DUKE FIELD FAIR 78 70 76 E3 29.98S  
VALPARAISO MOSUNNY 79 70 74 E7 29.97S  
MARY ESTHER SUNNY 80 66 63 E5 29.96R  
PANAMA CITY FAIR 79 71 76 E7 29.97S  
TYNDALL AFB SUNNY 78 71 80 NE7 29.98R  
APALACHICOLA SUNNY 79 75 87 E10 29.96S  
 
STATION/POSITION SKY/WX TEMP WIND PRES WAVE SWELL
 
AIR SEA DIR/SP/G HT/PER HT/PER  
(F) (DEG/KT/KT) (MB) (FT/S) (FT/S)  
30.1N 87.6W 81 84 80/ 12/ 14 1014.0R 1/ 4  
29.2N 88.2W 82 84 110/ 14/ 17 1013.9  
28.8N 86.0W 81 83 80/ 16/ 19 1013.1R 4/ 6  
PANAMA CITY BEAC 77 110/ 8/ 11 1015.3R  
TOWER C 79 80/ 15/ 16 1014.6S  
28.5N 84.5W 81 83 70/ 16/ 19 1012.9R 3/ 5  
 

 
FLZ011-016>038-118-127-128-134-139-239-231500-  
NORTH FLORIDA  
 
CITY SKY/WX TMP DP RH WIND PRES REMARKS
 
MARIANNA SUNNY 77 73 87 E8 29.99S  
TALLAHASSEE MOSUNNY 79 73 82 NE8 29.98S  
PERRY PTSUNNY 76 73 89 NE7 29.98S  
LIVE OAK CLOUDY 77 77 100 NE6 30.00R FOG  
CROSS CITY SUNNY 80 72 76 NE10 30.00S  
LAKE CITY PTSUNNY 73 73 100 NE7 29.98R  
GAINESVILLE SUNNY 81 71 71 NE9 29.98S  
WILLISTON SUNNY 82 75 78 N12 29.95S  
PALATKA FAIR 81 75 83 NE12 29.95S  
MAYPORT NAS MOSUNNY 83 76 79 NE15 29.96S  
JACKSONVILLE PTSUNNY 81 75 82 NE12 29.96S  
JAX NAS MOSUNNY 82 73 74 NE10 29.96S  
JAX CECIL SUNNY 81 77 89 NE9 29.96S  
FERNANDINA BEA FAIR 82 72 69 MISG 29.96S  
ST AUGUSTINE MOSUNNY 82 72 71 E16G22 29.96S  
PALM COAST RAIN 79 N/A N/A E12 29.94R  
 
STATION/POSITION SKY/WX TEMP WIND PRES WAVE SWELL
 
AIR SEA DIR/SP/G HT/PER HT/PER  
(F) (DEG/KT/KT) (MB) (FT/S) (FT/S)  
SHELL POINT NOT AVBL  
KEATON BEACH 76 30/ 7/ 9 1014.3F  
CEDAR KEY 79 50/ 10/ 13 1014.3R  
FERNANDINA 82 82 20/ 8/ 14 1015.6S  
30.7N 81.3W 82 N/A 5/11 3/11  
MAYPORT 81 82 50/ 14/ 16 1015.3R  
31.4N 80.9W 78 80 100/ 10/ 14 1015.2R 5/15 5/15  
ST AUGUSTINE 79 82 30/ 15/ 15 1014.5R  
 

 
FLZ040-043>046-052-053-057-058-063-144-231500-  
INTERIOR CENTRAL FLORIDA  
 
CITY SKY/WX TMP DP RH WIND PRES REMARKS
 
OCALA SUNNY 79 73 82 N7 29.95R  
THE VILLAGES N/A 81 77 89 MISG 29.85R  
LEESBURG MOSUNNY 83 74 74 NE14 29.94S  
SANFORD SUNNY 82 74 76 NE8 29.92S  
ORLANDO EXEC SUNNY 82 75 79 NE9 29.92R  
ORLANDO INTL PTSUNNY 83 75 77 NE14 29.92R  
KISSIMMEE PTSUNNY 82 73 74 NE10G16 29.93R  
WINTER HAVEN PTSUNNY 78 72 81 NE9 29.93R  
LAKELAND MOSUNNY 81 73 78 NE12G18 29.92S  
BARTOW PTSUNNY 75 N/A N/A MISG 29.91S  
SEBRING FAIR 83 74 75 NE12 29.91R  
OKEECHOBEE MOSUNNY 81 73 78 NE7 29.89R  
 

 
FLZ041-047-054-059-064-141-147-231500-  
EAST CENTRAL FLORIDA  
 
CITY SKY/WX TMP DP RH WIND PRES REMARKS
 
DAYTONA BEACH PTSUNNY 84 74 71 NE13 29.93R  
DELAND SUNNY 82 75 78 NE8 29.93S  
NEW SMYRNA BEA MOSUNNY 82 73 74 NE13 29.93S  
JFK SPACE CTR CLOUDY 82 76 82 NE7 29.90R  
TITUSVILLE MOSUNNY 84 73 70 NE12 29.92R  
CAPE CANAVERAL CLOUDY 83 73 72 NE10 29.90R  
PATRICK AFB PTSUNNY 82 73 74 NE13 29.90R  
MELBOURNE CLOUDY 84 73 69 NE12 29.90R  
VERO BEACH CLOUDY 84 74 71 NE15 29.89R  
FT PIERCE CLOUDY 83 78 85 VRB6 29.88S  
STUART TSTM 84 77 79 NE10 29.89R  
 
STATION/POSITION SKY/WX TEMP WIND PRES WAVE SWELL
 
AIR SEA DIR/SP/G HT/PER HT/PER  
(F) (DEG/KT/KT) (MB) (FT/S) (FT/S)  
28.5N 80.2W 83 84 50/ 14/ 17 1013.5R 6/ 7 3/11  
28.9N 78.5W 60/ 16/ 21 1013.8R 10/15 8/15  
TRIDENT PIER 82 83 30/ 8/ 13 1014.3R  
28.4N 80.5W 83 N/A 4/13 2/13  
27.5N 80.2W 83 N/A 5/ 8 2/11  
 

 
FLZ050-056-061-142-242-148-248-149-249-151-251-155-255-  
160-260-231500-  
WEST CENTRAL FLORIDA  
 
CITY SKY/WX TMP DP RH WIND PRES REMARKS
 
CRYSTAL RIVER FAIR N/A N/A N/A NE9 29.94S  
INVERNESS FAIR 81 73 78 NE8 29.94S  
BROOKSVILLE SUNNY 81 73 76 NE12 29.94R  
CLEARWATER AIR CLOUDY 79 72 78 NE9 29.92R  
ST PETE CLEARW MOSUNNY 82 73 74 NE10G21 29.92R  
TAMPA INTL MOSUNNY 83 72 69 N8 29.92S  
TAMPA EXEC MOSUNNY 82 73 74 NE5 29.92S  
PLANT CITY MOSUNNY 81 75 83 N9 29.94R  
MACDILL AFB MOSUNNY 82 79 92 E16 29.91S  
PETER O KNIGHT PTSUNNY 79 73 83 NE10 29.91S  
ST PETERSBURG CLOUDY 81 74 79 NE14 29.90R  
SARASOTA CLOUDY 77 75 93 NE10 29.89R  
VENICE PTSUNNY 82 75 78 NE13 29.89S  
 
STATION/POSITION SKY/WX TEMP WIND PRES WAVE SWELL
 
AIR SEA DIR/SP/G HT/PER HT/PER  
(F) (DEG/KT/KT) (MB) (FT/S) (FT/S)  
27.3N 84.2W 83 N/A 3/ 5  
CLEARWATER BEACH 79 84 50/ 10/ 14 1013.3R  
MIDDLE TAMPA BAY 78 60/ 12/ 15 1013.0R  
VENICE 80 84 50/ 9/ 10 1012.2R  
 

 
FLZ066-069-070-075>078-162-262-165-265-231500-  
SOUTHWEST FLORIDA AND KEYS  
 
CITY SKY/WX TMP DP RH WIND PRES REMARKS
 
PUNTA GORDA PTSUNNY 80 75 84 NE12 29.90R  
FT MYERS PTSUNNY 81 77 88 NE9 29.87R  
SOUTHWEST INTL MOSUNNY 81 74 79 NE9 29.88R  
NAPLES MOSUNNY 82 76 81 NE12 29.86R  
IMMOKALEE CLOUDY 79 75 89 N9 29.89R  
MARATHON MOSUNNY 85 75 72 N8 29.85R  
KEY WEST NAS MOSUNNY 90 78 68 NE7 29.85R HX 104  
KEY WEST INTL MOSUNNY 87 75 67 E6 29.85R HX 96  
 
STATION/POSITION SKY/WX TEMP WIND PRES WAVE SWELL
 
AIR SEA DIR/SP/G HT/PER HT/PER  
(F) (DEG/KT/KT) (MB) (FT/S) (FT/S)  
NAPLES 84 40/ 5/ 9 1011.3R  
DRY TORTUGAS 85 60/ 5/ 6 1011.1R  
SAND KEY 83 1011.3R  
 

 
FLZ067-068-071>074-168-172>174-231500-  
SOUTHEAST FLORIDA  
 
CITY SKY/WX TMP DP RH WIND PRES REMARKS
 
W PALM BEACH PTSUNNY 85 77 77 NE9 29.87R HX 95  
BOCA RATON MOSUNNY N/A N/A N/A NE12 29.86  
FT LAUDER-EXEC MOSUNNY 86 73 65 NE10 29.85R  
FT LAUDERDALE MOSUNNY 86 79 79 NE8 29.85R HX 99  
POMPANO BEACH SUNNY 84 75 74 NE8 29.85R  
PEMBROKE PINES MOSUNNY 87 77 72 NE8 29.87R HX 99  
OPA LOCKA MOSUNNY 85 77 77 NE7 29.86R HX 95  
MIAMI PTSUNNY 85 79 82 VRB3 29.85R HX 98  
WEST KENDALL MOSUNNY 84 77 79 N5 29.85R  
HOMESTEAD MOSUNNY 82 81 94 N8 29.85R HX 95  
 
STATION/POSITION SKY/WX TEMP WIND PRES WAVE SWELL
 
AIR SEA DIR/SP/G HT/PER HT/PER  
(F) (DEG/KT/KT) (MB) (FT/S) (FT/S)  
PORT EVERGLADES 84 40/ 6/ 10 1010.8R  
VIRGINIA KEY 84 85 20/ 3/ 8 1010.4R  
LAKE WORTH 82 84 20/ 9/ 11 1012.2R  
FOWEY ROCKS 83 85 40/ 9/ 10 1011.5R  
SETTLEMENT POINT 83 40/ 7/ 8 1011.0R  
 

 
 
 
 
CLICK HERE TO GO TO PREVIOUS BULLETINS.

The Nexlab FL Page Main Text Page